Regional Weather Roundup
Issued by NWS Upton, NY

Current Version | Previous Version | Graphics & Text | Print | Product List | Glossary Off
Versions: 1 2 3 4 5 6 7 8 9 10 11 12 13 14 15 16 17 18 19 20 21 22 23 24 25 26 27 28 29 30 31 32 33 34 35 36 37 38 39 40 41 42 43 44 45 46 47 48 49 50

000
ASUS41 KOKX 241605
RWROKX

REGIONAL WEATHER ROUNDUP
NATIONAL WEATHER SERVICE NEW YORK NY
1200 PM EDT THU JUL 24 2014

NOTE: "FAIR" INDICATES FEW OR NO CLOUDS BELOW 12,000 FEET WITH NO
SIGNIFICANT WEATHER AND/OR OBSTRUCTIONS TO VISIBILITY.

NYZ071-072-176-178-NJZ106-104-241700-
NEW YORK CITY METRO AREA


CITY           SKY/WX    TMP DP  RH WIND       PRES   REMARKS
CENTRAL PARK   CLOUDY    75  62  64 VRB6      29.90S
LAGUARDIA APRT PTSUNNY   76  60  57 N13       29.86S
KENNEDY INTL   PTSUNNY   78  60  53 N13       29.87S
NEWARK/LIBERTY CLOUDY    75  64  68 N7        29.87S
BRNX BOT. GARD NOT AVBL
TETERBORO      CLOUDY    78  60  53 N9        29.87R
$$

NYZ177-179-078>081-241700-
LONG ISLAND NEW YORK

CITY           SKY/WX    TMP DP  RH WIND       PRES   REMARKS
FARMINGDALE    PTSUNNY   77  62  59 N9        29.87R
ISLIP          CLOUDY    80  63  55 NW15      29.84S
SHIRLEY        PTSUNNY   76  64  66 NW9       29.85S
WESTHAMPTON    PTSUNNY   77  63  61 N10       29.85S
MONTAUK POINT    N/A     77  66  68 NW10      29.84S
$$

NYZ052-065-067-241700-
HUDSON VALLEY

CITY           SKY/WX    TMP DP  RH WIND       PRES   REMARKS
WHITE PLAINS   PTSUNNY   74  60  61 N14       29.88S
NEWBURGH       PTSUNNY   73  61  64 NE12      29.92R
MONTGOMERY     CLOUDY    75  60  59 N8        29.90S
POUGHKEEPSIE   PTSUNNY   75  60  59 N13       29.90R
ALBANY         PTSUNNY   74  58  57 N10       29.92S
$$

NJZ001-105-106-008-010-013-015-019>022-104-241700-
NEW JERSEY

CITY           SKY/WX    TMP DP  RH WIND       PRES   REMARKS
NEWARK/LIBERTY CLOUDY    75  64  68 N7        29.87S
TETERBORO      CLOUDY    78  60  53 N9        29.87R
CALDWELL       CLOUDY    76  61  59 VRB6      29.89S
MORRISTOWN     CLOUDY    75  63  64 N10       29.89S
SOMERVILLE     CLOUDY    75  57  53 N9G17     29.88R
LINDEN         PTSUNNY   78  63  59 NW9       29.89S
SUSSEX         CLOUDY    76  58  53 VRB7      29.91S
ANDOVER          N/A     73  57  57 N6        29.92S
TRENTON        CLOUDY    75  60  59 NW8       29.89R
MILLVILLE      CLOUDY    75  64  68 NW7       29.90R
ATLANTIC CITY  LGT RAIN  76  67  73 NW7       29.88S
WRIGHTSTOWN    CLOUDY    75  64  68 N9        29.87R
TOMS RIVER     CLOUDY    77  64  65 N5        29.88R
BELMAR         PTSUNNY   77  63  61 NW9       29.87S
$$

PAZ047>061-062-071-241700-
EASTERN PENNSYLVANIA

CITY           SKY/WX    TMP DP  RH WIND       PRES   REMARKS
PHILADELPHIA   CLOUDY    76  60  57 NW9       29.90S
ALLENTOWN      MOSUNNY   77  56  48 N10       29.91F
SCRANTON       PTSUNNY   74  51  44 N10G20    29.96R
$$

CTZ002-004>006-009-010-012-RIZ004-006-007-MAZ004-011-015-241700-
SOUTHERN NEW ENGLAND
 IN CT

CITY           SKY/WX    TMP DP  RH WIND       PRES   REMARKS
BRADLEY INTL   PTSUNNY   79  59  50 N14       29.84S
HARTFORD       MOSUNNY   79  60  52 N10       29.85R
DANBURY        MOSUNNY   74  59  59 NW12      29.90R
WTRBRY/OXFORD  MOSUNNY   73  61  64 N10       29.90S
BRIDGEPORT     CLOUDY    79  62  56 N13G21    29.85R
MERIDEN        CLOUDY    78  60  53 N8        29.85S
NEW HAVEN      PTSUNNY   80  62  54 N9        29.85R
CHESTER        PTSUNNY   75  63  64 N8        29.86R
GROTON         CLOUDY    75  66  73 N7        29.82R
WILLIMANTIC    PTSUNNY   76  63  64 NW6       29.84S

 IN RI

CITY           SKY/WX    TMP DP  RH WIND       PRES   REMARKS
PROVIDENCE     CLOUDY    77  65  66 N12       29.83R
BLOCK ISLAND   PTSUNNY   77  68  73 N9        29.83R
WESTERLY       CLOUDY    80  66  62 N7        29.83R

 IN MA

CITY           SKY/WX    TMP DP  RH WIND       PRES   REMARKS
BOSTON         CLOUDY    72  64  76 E9        29.84R
WORCESTER      PTSUNNY   72  61  68 NE6       29.87S
WESTFIELD      SUNNY     80  61  52 N8        29.85S
PROVINCETOWN   CLOUDY    66  64  94 N9        29.83R
NANTUCKET      CLOUDY    75  68  78 N7        29.80S
$$

ANZ330-335-338-340-345-350-353-355-241700-
COASTAL MARINE OBSERVATIONS


STATION/POSITION TIME  SKY/WX   TEMP    WIND        PRES    VSBY  WAVE
                                AIR SEA DIR/SP/G                  HT/PER
                 (UTC)          (F)     (DEG/KT/KT) (MB)    (MI)  (FT/S)
NY HARB ENTRANCE NOT AVBL
4S FIRE IS       NOT AVBL
23SW MTP         1600            73 71              1009.4          2/ 9
HUDSON CANYON    1600            72 74  340/ 12/ 12 1010.2          3/ 8
EXECUTION ROCKS  1600            75 72   10/  8/ 14   N/A
WESTERN LI SOUND 1600            74     360/ 10/ 12   N/A           0
CENTRAL LI SOUND 1500            72 70  330/  6/  8   N/A           1/ 3
EASTERN LI SOUND 1500            72 67  340/  8/  8   N/A
ROBBINS REEF     1600            74      20/ 10/ 11   N/A
$$


>>>>>>>>>>>>>>>>>>>>>>>>>>>> KEY <<<<<<<<<<<<<<<<<<<<<<<<<<<
>                                                          <
>     SKY/WX - SKY CONDITION/PRESENT WEATHER               <
>     TMP    - TEMPERATURE IN FAHRENHEIT                   <
>     DP     - DEWPOINT IN FAHRENHEIT                      <
>     RH     - RELATIVE HUMIDITY IN PERCENT                <
>     WIND   - DIRECTION AND SPEED IN MPH                  <
>     PRES   - MEAN SEA LEVEL PRESSURE IN INCHES OF HG     <
>     WCI    - WIND CHILL INDEX                            <
>     VSB    - VISIBILITY IN MILES                         <
>     HX     - HEAT INDEX                                  <
>     TC     - TEMPERATURE IN CELSIUS                      <
>     VRB    - VARIABLE WIND DIRECTION                     <
>                                                          <
>>>>>>>>>>>>>>>>>>>>>>>>>>>> KEY <<<<<<<<<<<<<<<<<<<<<<<<<<<





USA.gov is the U.S. government's official web portal to all federal, state and local government web resources and services.